Weather History for White Mountain, AK

Change the Weather History Date:

Saturday, November 3, 2012

  Actual Average (PAKK) Record (PAKK)
Temperature  
Mean Temperature 12 °F -  
Max Temperature 17 °F 21 °F 44 °F (2003)
Min Temperature 8 °F 13 °F -5 °F (1999)
Degree Days  
Heating Degree Days 53    
Moisture  
Dew Point 1 °F    
Average Humidity 64    
Maximum Humidity 76    
Minimum Humidity 49    
Precipitation  
Precipitation 0.00 in - - ()
Sea Level Pressure  
Sea Level Pressure 30.05 in    
Wind  
Wind Speed 9 mph ()    
Max Wind Speed 16 mph    
Max Gust Speed 23 mph    
Visibility 9.3 miles    
Events      
Averages and records for this station are not official NWS values.
T = Trace of Precipitation, MM = Missing Value Source: Averaged Metar Reports

Daily Weather History Graph

Daily Weather History Graph

Search for Another Location

Airport:

Trip Planner

Search our weather history database for the weather conditions in past years. The results will help you decide how hot, cold, wet, or windy it might be!

Date:

Astronomy

Nov. 03, 2012 Rise Set
Actual Time 10:49 AM AKDT 6:23 PM AKDT
Civil Twilight 9:53 AM AKDT 7:19 PM AKDT
Nautical Twilight 8:54 AM AKDT 8:18 PM AKDT
Astronomical Twilight 7:58 AM AKDT 9:14 PM AKDT
Moon 9:34 PM AKDT (11/3) 3:47 PM AKDT (11/3)
Length of Visible Light 9h 26m
Length of Day
7h 34m
Waning Gibbous, 79% of the Moon is Illuminated
Nov 3
Waning Gibbous
Nov 6
Last Quarter
Nov 13
New
Nov 20
First Quarter
Nov 28
Full

Hourly Weather History & Observations

Time (AKDT) Temp. Windchill Dew Point Humidity Pressure Visibility Wind Dir Wind Speed Gust Speed Precip Events Conditions
12:58 AM 14.0 °F -0.8 °F 3.9 °F 64% 30.01 in 10.0 mi NNE 13.8 mph 20.7 mph N/A   Clear
1:58 AM 12.9 °F -0.2 °F 3.0 °F 65% 30.02 in 10.0 mi North 10.4 mph 21.9 mph N/A   Clear
2:58 AM 12.0 °F 0.5 °F 1.9 °F 64% 30.04 in 9.0 mi NNE 8.1 mph - N/A   Clear
3:58 AM 10.9 °F -5.9 °F 3.0 °F 70% 30.02 in 10.0 mi North 16.1 mph 23.0 mph N/A   Clear
4:58 AM 12.0 °F -1.3 °F 1.9 °F 64% 30.04 in 10.0 mi North 10.4 mph 18.4 mph N/A   Clear
5:58 AM 10.9 °F 0.2 °F 1.0 °F 64% 30.04 in 10.0 mi NNE 6.9 mph - N/A   Clear
6:58 AM 10.0 °F -2.9 °F 1.0 °F 67% 30.04 in 10.0 mi NNE 9.2 mph - N/A   Clear
7:58 AM 10.0 °F -1.9 °F 1.0 °F 67% 30.05 in 10.0 mi North 8.1 mph - N/A   Clear
8:58 AM 10.0 °F -3.7 °F -0.0 °F 64% 30.05 in 10.0 mi North 10.4 mph - N/A   Clear
9:58 AM 10.0 °F -1.9 °F -0.0 °F 64% 30.06 in 10.0 mi NNE 8.1 mph - N/A   Clear
10:58 AM 8.1 °F -2.0 °F -0.0 °F 70% 30.06 in 8.0 mi NNE 5.8 mph - N/A   Clear
11:58 AM 10.9 °F 0.2 °F 1.0 °F 64% 30.06 in 9.0 mi Variable 6.9 mph - N/A   Clear
12:58 PM 14.0 °F 2.9 °F 1.0 °F 56% 30.07 in 9.0 mi North 8.1 mph - N/A   Clear
1:58 PM 16.0 °F 6.3 °F -0.0 °F 49% 30.07 in 8.0 mi North 6.9 mph - N/A   Clear
2:58 PM 16.0 °F 4.4 °F 1.0 °F 52% 30.06 in 8.0 mi North 9.2 mph - N/A   Clear
3:58 PM 16.0 °F 2.9 °F 3.0 °F 57% 30.05 in 8.0 mi North 11.5 mph - N/A   Clear
4:58 PM 15.1 °F 6.4 °F 1.0 °F 54% 30.05 in 8.0 mi North 5.8 mph - N/A   Clear
5:58 PM 14.0 °F - 1.0 °F 56% 30.06 in 8.0 mi Calm Calm - N/A   Clear
6:58 PM 10.0 °F -2.9 °F 1.0 °F 67% 30.07 in 8.0 mi North 9.2 mph - N/A   Clear
7:58 PM 9.0 °F -2.2 °F 1.9 °F 73% 30.07 in 10.0 mi North 6.9 mph - N/A   Clear
8:58 PM 9.0 °F -6.6 °F 1.9 °F 73% 30.06 in 10.0 mi North 12.7 mph - N/A   Clear
9:58 PM 9.0 °F -8.5 °F 1.9 °F 73% 30.06 in 10.0 mi North 16.1 mph - N/A   Clear
10:58 PM 8.1 °F -5.3 °F 1.9 °F 76% 30.07 in 10.0 mi NNW 9.2 mph - N/A   Clear
11:58 PM 10.0 °F 0.4 °F 1.9 °F 70% 30.08 in 10.0 mi NNE 5.8 mph - N/A   Clear